DECAYED

STARLINK-1713, 46360 (Decayed)

Orbit data source: Space-Track

STARLINK-1713, 46360 was a payload satellite owned by SpaceX/Seattle (US) in LEO that was launched on Thu, 03 Sep 2020 UTC via an FALCON 9 launch vehicle from the Air Force Eastern Test Range (AFETR). Payload-class satellites include a variety of spacecraft equipped with specific instruments for various scientific and technological missions. These include communications satellites like Starlink; space stations such as the ISS; scientific satellites like the Hubble; Earth observation satellites from companies like Planet Labs, Umbra, and HawkEye 360; GPS; miniature CubeSats for education and research; and military/defense satellites.

Not visible in the next 10 days
Identifier
46360, 2020-062AM
Orbit
Decayed
Country
Flag of USUS
Related business
Manufacturer
SpaceX/Seattle
Mission
Decayed Commercial Communications
Bus & Motor
STARLINK, Unknown motor
Mass
260 kg wet, ~248 kg dry
Launch date (UTC)
2020-09-03 (5 years ago)
Launch vehicle
FALCON 9
Launch site
Air Force Eastern Test Range (AFETR)
Object type
Payload
Rocket body
Debris
Shape & HBR
Box + 1 Pan, 10.1 m
Radar Cross Section
13.562 m², Large (>1 m²)

Expand to show TLE details & history
Last TLE update: 5 days ago

TLE from 5 days ago
0 STARLINK-1713
1 46360U 20062AM  25283.31752413  .09129218  12270-4  78815-3 0  9995
2 46360  53.0327 221.2405 0006731 243.1554 116.8803 16.38521427283197
Epoch: 2025-10-10T07:37Z
TLE epoch observation values (Epoch: 2025-10-10T07:37:14.084Z)
Latitude
-0.00011°
Longitude
87.76664°
Altitude
172.661 km
Speed
7.803 km/s
True Right ascension
14h 44m 57s
True Declination
0° 00' 00"
Sunlit
Object was in daylight at epoch
Visualization orbit readout
Latitude
Unknown
Longitude
Unknown
Altitude
Unknown
Speed
Unknown
Apparent Right ascension
Unknown
Apparent Declination
Unknown
Sunlit
N/A
Visualization observer readout
Local Sidereal Time
13:20:56
Azimuth
Unknown
Elevation
Unknown
Doppler factor
Unknown
Orbital elements
Apogee altitude
174.436 km
Perigee altitude
165.621 km
Semi-major axis
6,548.165 km
Eccentricity
0.00067
Inclination
53.0327°
RAAN
221.2405°
Arg. of periapsis
243.1554°
True anomaly
116.94907°
Mean anomaly
116.8803°
Eccentric anomaly
116.91469°
Mean motion
4.09604 °/min
Orbital period
87.89 mins
BSTAR
0.00078815
Loading maneuver chart data...
Computing Atmospheric mass density...
Loading historical data...
Loading historical data...
Loading historical data...
Loading historical data...
Loading historical data...
Loading historical data...
Loading historical data...

Documentation

Showing up to 5 results
|